CAPE
nan nan nan nan nan nan nan nan nan nan nan nan nan nan nan nan nan nan nan nan nan nan nan nan nan nan nan nan nan nan nan nan nan nan nan nan nan nan nan nan nan nan nan nan nan nan nan nan nan 0 nan nan nan nan nan nan nan nan nan nan nan nan nan nan nan nan nan nan nan nan nan nan nan nan nan nan nan nan nan nan nan nan nan nan nan nan
nan nan nan nan nan nan nan nan nan nan nan nan nan nan nan nan nan nan nan nan nan nan nan nan nan nan nan nan nan nan nan nan nan nan nan nan nan nan nan nan nan nan nan nan nan nan nan nan nan nan nan nan nan nan nan nan nan nan nan nan nan nan nan nan nan nan nan nan nan nan nan nan nan nan nan nan nan nan nan nan nan nan nan nan nan nan
nan nan nan nan nan nan nan nan nan nan nan nan nan nan nan nan nan nan nan nan nan nan nan nan nan nan nan nan nan nan nan nan nan nan nan nan nan nan nan nan nan nan nan nan nan nan nan nan nan nan nan nan nan nan nan nan nan nan nan nan nan nan nan nan nan nan nan nan nan nan nan nan nan nan nan nan nan nan nan nan nan nan nan nan nan nan
nan nan nan nan nan nan nan nan nan nan nan nan nan nan nan nan nan nan nan nan nan nan nan nan nan nan nan nan nan nan nan nan nan nan nan nan nan nan nan nan nan nan nan nan nan nan nan nan nan nan nan nan nan nan nan nan nan nan nan nan nan nan nan nan nan nan nan nan nan nan nan nan nan nan nan nan nan nan nan nan nan nan nan nan nan nan
nan nan nan nan nan nan nan nan nan nan nan nan nan nan nan nan nan nan nan nan nan nan nan nan nan nan nan nan nan nan nan nan nan nan nan nan nan nan nan nan nan 0 nan nan nan nan nan nan nan nan nan nan nan nan nan nan nan nan nan nan nan nan nan nan nan nan nan nan nan nan nan nan nan nan nan nan nan nan nan nan nan nan nan nan nan nan
nan nan nan nan nan nan nan nan nan nan nan nan nan nan nan nan nan nan nan nan nan nan nan nan nan nan nan nan nan nan nan nan nan nan nan nan nan nan nan 0 0 0 nan nan nan nan 0 0 0 0 nan 0 0 0 0 nan nan nan nan nan nan nan nan nan nan nan nan nan nan nan nan nan nan nan nan nan nan nan nan nan nan nan nan nan nan nan
nan nan nan nan nan nan nan nan nan nan nan nan nan nan nan nan nan nan nan nan nan nan nan nan nan nan nan nan nan nan nan nan nan nan nan 0 0 0 0 0 0 0 0 1 1 1 2 1 1 1 2 2 2 2 0 nan nan nan nan nan nan nan nan nan nan nan nan nan nan nan nan nan nan nan nan nan nan nan nan nan nan nan nan nan nan nan
nan nan nan nan nan nan nan nan nan nan nan nan nan nan nan nan nan nan nan nan nan nan nan nan nan nan nan nan nan nan nan nan nan nan nan 0 0 0 1 2 2 3 3 4 4 5 6 6 6 5 5 3 1 1 nan nan nan nan nan nan nan nan nan nan nan nan nan nan nan nan nan nan nan nan nan nan nan nan nan nan nan nan nan nan nan nan
nan nan nan nan nan nan nan nan nan nan nan nan nan nan nan nan nan nan nan nan nan nan nan nan nan nan nan nan nan nan nan nan nan nan nan nan nan nan 2 5 5 5 4 6 6 7 7 7 7 6 5 3 1 1 nan nan nan nan nan nan nan nan nan nan nan nan nan nan nan nan nan nan nan nan nan nan nan nan nan nan nan nan nan nan nan 0
nan nan nan nan nan nan nan nan nan nan nan nan nan nan nan nan nan nan nan nan nan nan nan nan nan nan nan nan nan nan nan 1 6 6 4 nan 4 4 1 1 1 3 4 6 6 6 7 7 7 6 4 2 0 0 nan nan nan nan nan nan nan nan nan nan nan nan nan nan nan nan nan nan nan nan nan nan nan nan nan nan nan nan nan nan nan 1
nan nan nan nan nan nan nan nan nan nan nan nan nan nan nan nan nan nan nan nan nan nan nan nan nan nan nan nan nan nan nan nan 0 0 3 0 1 1 1 1 1 4 6 7 7 7 7 7 7 5 2 1 nan nan nan nan nan nan nan nan nan nan nan nan nan nan nan nan nan nan nan nan nan nan nan nan nan nan nan nan nan nan nan 0 0 2
nan nan nan nan nan nan nan nan nan nan nan nan nan nan nan nan nan nan nan nan nan nan nan nan nan nan nan nan nan nan nan nan nan nan nan nan nan nan nan 0 0 2 5 9 9 9 9 6 6 3 1 nan nan nan nan nan nan nan nan nan nan nan nan nan nan nan nan nan nan nan nan nan nan nan nan nan nan nan nan nan nan nan nan 0 0 2
nan nan nan nan nan nan nan nan nan nan nan nan nan nan nan nan nan nan nan nan nan nan nan nan nan nan nan nan nan nan nan nan nan nan nan nan nan nan nan nan nan nan nan nan nan 3 11 7 7 4 1 nan nan nan nan nan nan nan nan nan nan nan nan nan nan nan nan nan nan nan nan nan nan nan nan nan nan nan nan nan nan nan nan 1 1 3
nan nan nan nan nan nan nan nan nan nan nan nan nan nan nan nan nan nan nan nan nan nan nan nan nan nan nan nan nan nan nan nan nan nan nan nan nan nan nan nan nan nan nan nan nan nan 8 4 4 0 2 nan nan nan nan nan nan nan nan nan nan nan nan nan nan nan nan nan nan nan nan nan nan nan nan nan nan nan nan nan nan nan 0 1 1 3
nan nan nan nan nan nan nan nan nan nan nan nan nan nan nan nan nan nan nan nan nan nan nan nan nan nan nan nan nan nan nan nan nan nan nan nan nan nan nan nan nan nan nan nan nan nan 4 nan nan nan nan nan nan nan nan nan nan nan nan nan nan nan nan nan nan nan nan nan nan nan nan nan nan nan nan nan nan nan nan nan nan nan 1 2 2 3
nan nan nan nan nan nan nan nan nan nan nan nan nan nan nan nan nan nan nan nan nan nan nan nan nan nan nan nan nan nan nan nan nan nan nan nan nan nan nan nan nan nan nan nan nan nan nan nan nan nan nan nan nan nan nan nan nan nan nan nan nan nan nan nan nan nan nan nan nan nan nan nan nan nan nan nan nan nan nan nan nan nan 1 2 2 2
nan nan nan nan nan nan nan nan nan nan nan nan nan nan nan nan nan nan nan nan nan nan nan nan nan nan nan nan nan nan nan nan nan nan nan nan nan nan nan nan nan nan nan nan nan nan nan nan nan nan nan 0 nan nan nan nan nan nan nan nan nan nan nan nan nan nan nan nan nan nan nan nan nan nan nan nan nan nan nan nan nan 0 1 1 1 2
nan nan nan nan nan nan nan nan nan nan nan nan nan nan nan nan nan nan nan nan nan nan nan nan nan nan nan nan nan nan nan nan nan nan nan nan nan nan nan nan nan nan nan nan nan nan nan nan nan nan 0 0 nan nan nan nan nan nan nan nan nan nan nan nan nan nan nan nan nan nan nan nan nan nan nan nan nan nan nan nan nan 0 1 1 1 1
nan nan nan nan nan nan nan nan nan nan nan nan nan nan nan nan nan nan nan nan nan nan nan nan nan nan nan nan nan nan nan nan nan nan nan nan nan nan nan nan nan nan nan nan nan nan nan nan nan 3 5 1 nan nan nan nan nan nan nan nan nan nan nan nan nan nan nan nan nan nan nan nan nan nan nan nan nan nan nan nan nan 0 0 1 1 1
nan nan nan nan nan nan nan nan nan nan nan nan nan nan nan nan nan nan nan nan nan nan nan nan nan nan nan nan nan nan nan nan nan nan nan nan nan nan nan nan nan nan nan nan nan nan nan nan nan 1 4 1 0 0 nan nan nan nan nan nan nan nan nan nan nan nan nan nan nan nan nan nan nan nan nan nan nan nan nan 0 0 0 0 0 0 1
nan nan nan nan nan nan nan nan nan nan nan nan nan nan nan nan nan nan nan nan nan nan nan nan nan nan nan nan nan nan nan nan nan nan nan nan nan nan nan nan nan nan nan nan nan nan nan nan nan nan 5 2 1 1 nan nan nan nan nan nan nan nan nan nan nan nan nan nan nan nan nan nan nan nan nan nan nan nan nan 0 0 0 0 0 0 0
nan nan nan nan nan nan nan nan nan nan nan nan nan nan nan nan nan nan nan nan nan nan nan nan nan nan nan nan nan nan nan nan nan nan nan nan nan nan nan nan nan nan nan nan nan nan nan nan nan nan 6 4 1 1 nan nan nan nan nan nan nan nan nan nan nan nan nan nan nan nan nan nan nan nan nan nan nan nan nan 0 0 0 0 nan nan 0
nan nan nan nan nan nan nan nan nan nan nan nan nan nan nan nan nan nan nan nan nan nan nan nan nan nan nan nan nan nan nan nan nan nan nan nan nan nan nan nan nan nan nan nan nan nan nan nan nan nan 9 2 0 0 nan nan nan nan nan nan nan nan nan nan nan nan nan nan nan nan nan nan nan nan nan nan nan nan nan nan nan nan nan nan nan nan
nan nan nan nan nan nan nan nan nan nan nan nan nan nan nan nan nan nan nan nan nan nan nan nan nan nan nan nan nan nan nan nan nan nan nan nan nan nan nan nan nan nan nan nan nan nan nan nan nan nan 1 0 nan nan nan nan nan nan nan nan nan nan nan nan nan nan nan nan nan nan nan nan nan nan nan nan nan nan nan nan nan nan nan nan nan nan
nan nan nan nan nan nan nan nan nan nan nan nan nan nan nan nan nan nan nan nan nan nan nan nan nan nan nan nan nan nan nan nan nan nan nan nan nan nan nan nan nan nan nan nan nan nan nan nan nan nan nan nan nan nan nan nan nan nan nan nan nan nan nan nan nan nan nan nan nan nan nan nan nan nan nan nan nan nan nan nan nan nan nan nan nan nan
nan nan nan nan nan nan nan 0 nan nan nan nan nan nan nan nan nan nan nan nan nan nan nan nan nan nan nan nan nan nan nan nan nan nan nan nan nan nan nan nan nan nan nan nan nan nan nan nan nan nan nan nan nan nan nan nan nan nan nan nan nan nan nan nan nan nan nan nan nan nan nan nan nan nan nan nan nan nan nan nan nan nan nan nan nan nan
0 0 1 1 1 1 0 0 0 0 0 0 nan nan nan nan nan nan nan nan nan nan nan nan nan nan nan nan nan nan nan nan nan nan nan nan nan nan nan nan nan nan nan nan nan nan nan nan nan nan nan nan nan nan nan nan nan nan nan nan nan nan nan nan nan nan nan nan nan nan nan nan nan nan nan nan nan nan nan nan nan nan nan nan nan nan
2 2 2 1 1 1 1 0 0 0 0 1 0 0 nan nan nan nan nan nan nan nan nan nan nan nan nan nan nan nan nan nan nan nan nan nan nan nan nan nan nan nan nan nan nan nan 1 nan nan nan nan nan nan nan nan nan nan nan nan nan nan nan nan nan nan nan nan nan nan nan nan nan nan nan nan nan nan nan nan nan nan nan nan nan nan nan
2 3 2 2 2 2 2 1 1 1 1 0 0 0 nan nan nan nan nan nan nan nan nan nan nan nan nan nan nan nan nan nan nan nan nan nan nan nan nan nan nan nan nan nan nan nan nan nan nan nan nan nan nan nan nan nan nan nan nan nan nan nan nan nan nan nan nan nan nan nan nan nan nan nan nan nan nan nan nan nan nan nan nan nan nan nan
nan nan 1 3 3 3 2 2 2 2 1 1 nan nan nan nan nan nan nan nan nan nan nan nan nan nan nan nan nan nan nan nan nan nan nan nan nan nan nan nan nan nan nan nan nan nan nan nan nan nan nan nan nan nan nan nan nan nan nan nan nan nan nan nan nan nan nan nan nan nan nan nan nan nan nan nan nan nan nan nan nan nan nan nan nan nan
nan nan nan nan nan nan nan nan 3 3 4 2 0 0 nan nan nan nan nan nan nan nan nan nan nan nan nan nan nan nan nan nan nan nan nan nan nan nan nan nan nan nan nan nan nan nan nan nan nan nan nan nan nan nan nan nan nan nan nan nan nan nan nan nan nan nan nan nan nan nan nan nan nan nan nan nan nan nan nan nan nan nan nan nan nan nan
nan nan nan nan nan nan nan nan nan nan nan nan nan nan nan nan nan nan nan nan nan nan nan nan nan nan nan nan nan nan nan nan 0 0 nan nan nan nan nan nan nan nan nan nan nan nan nan nan nan nan nan nan nan nan nan nan nan nan nan nan nan nan nan nan nan nan nan nan nan nan nan nan nan nan nan nan nan nan nan 0 0 0 nan nan nan nan
nan nan nan nan nan nan nan nan nan nan nan nan nan nan nan nan nan nan nan nan nan nan nan nan nan nan nan nan nan nan nan nan 2 2 nan nan nan nan nan nan nan nan nan nan nan nan nan nan nan nan nan nan nan nan nan nan nan nan nan nan nan nan nan nan nan nan nan nan nan nan nan nan nan nan nan nan nan nan nan 0 0 1 nan nan nan nan
nan nan nan nan nan nan nan nan nan nan nan nan nan nan nan nan nan nan nan nan nan nan nan nan nan nan nan nan nan nan nan nan 4 4 nan nan nan nan nan nan nan nan nan nan nan nan nan nan nan nan nan nan nan nan nan nan nan nan nan nan nan nan nan nan nan nan nan nan nan nan nan nan nan nan nan nan nan nan nan 0 0 1 2 nan nan nan
nan nan nan nan nan nan nan nan nan nan nan nan nan nan nan nan nan nan nan nan nan nan nan nan nan nan nan nan nan nan nan nan 4 4 nan nan nan nan nan nan nan nan nan nan nan nan nan nan nan nan nan nan nan nan nan nan nan nan nan nan nan nan nan nan nan nan nan nan nan nan nan nan nan nan nan nan nan nan nan nan nan 0 1 4 4 nan
nan nan nan nan nan nan nan nan nan nan nan nan nan nan nan nan nan nan nan nan nan nan nan nan nan nan nan nan nan nan nan nan 2 2 nan nan nan nan nan nan nan nan nan nan nan nan nan nan nan nan nan nan nan nan nan nan nan nan nan nan nan nan nan nan nan nan nan nan nan nan nan nan nan nan nan nan nan nan nan nan nan 0 0 1 1 0
nan nan nan nan nan nan nan nan nan nan nan nan nan nan nan nan nan nan nan nan nan nan nan nan nan nan nan nan nan nan nan nan nan nan nan nan nan nan nan nan nan nan nan nan nan nan nan nan nan nan nan nan nan nan nan nan nan nan nan nan nan nan nan nan nan nan nan nan nan nan nan nan nan nan nan nan nan nan nan nan nan nan nan nan nan 0
nan nan nan nan nan nan nan nan nan nan nan nan nan nan nan nan nan nan nan nan nan nan nan nan nan nan nan nan nan nan nan nan nan nan nan nan nan nan nan nan nan nan nan nan nan nan nan nan nan nan nan nan nan nan nan nan nan nan nan nan nan nan nan nan nan nan nan nan nan nan nan nan nan nan nan nan nan nan nan nan nan nan nan nan nan nan
nan nan nan nan nan nan nan nan nan nan nan nan nan nan nan nan nan nan nan nan nan nan nan nan nan nan nan nan nan nan nan nan nan nan nan nan nan nan nan nan nan nan nan nan nan nan nan nan nan nan nan nan nan nan nan nan nan nan nan nan nan nan nan nan nan nan nan nan nan nan nan nan nan nan nan nan nan nan nan nan nan nan nan nan nan nan
nan nan nan nan nan nan nan nan nan nan nan nan nan nan nan nan nan nan nan nan nan nan nan nan nan nan nan nan nan nan nan nan nan nan nan nan nan nan nan nan nan nan nan nan nan nan nan nan nan nan nan nan nan nan nan nan nan nan nan nan nan nan nan nan nan nan nan nan nan nan nan nan nan nan nan nan nan nan nan nan nan nan nan nan nan nan
nan nan nan nan nan nan nan nan nan nan nan nan nan nan nan nan nan nan nan nan nan nan nan nan nan nan nan nan nan nan nan nan nan nan nan nan nan nan nan nan nan nan nan nan nan nan nan nan nan nan nan nan nan nan nan nan nan nan nan nan nan nan nan nan nan nan nan nan nan nan nan nan nan nan nan nan nan nan nan nan nan nan nan nan nan nan
nan nan nan nan nan nan nan nan nan nan nan nan nan nan nan nan nan nan nan nan nan nan nan nan nan nan nan nan nan nan nan nan nan nan nan nan nan nan nan nan nan nan nan nan nan nan nan nan nan nan nan nan nan nan nan nan nan nan nan nan nan nan nan nan nan nan nan nan nan nan nan nan nan nan nan nan nan nan nan nan nan nan nan nan nan nan
nan nan nan nan nan nan nan nan nan nan nan nan nan nan nan nan nan nan nan nan nan nan nan nan nan nan nan nan nan nan nan nan nan nan nan nan nan nan nan nan nan nan nan nan nan nan nan nan nan nan nan nan nan nan nan nan nan nan nan nan nan nan nan nan nan nan nan nan nan nan nan nan nan nan nan nan nan nan nan nan nan nan nan nan nan nan
nan nan nan nan nan nan nan nan nan nan nan nan nan nan nan nan nan nan nan nan nan nan nan nan nan nan nan nan nan nan nan nan nan nan nan nan nan nan nan nan nan nan nan nan nan nan nan nan nan nan nan nan nan nan nan nan nan nan nan nan nan nan nan nan nan nan nan nan nan nan nan nan nan nan nan nan nan nan nan nan nan nan nan nan nan nan
nan nan nan nan nan nan nan nan nan nan nan nan nan nan nan nan nan nan nan nan nan nan nan nan nan nan nan nan nan nan nan nan nan nan nan 0 1 1 nan nan nan nan nan nan nan nan nan nan nan nan nan nan nan nan nan nan nan nan nan nan nan nan nan nan nan nan nan nan nan nan nan nan nan nan nan nan nan nan nan nan nan nan nan nan nan nan
nan nan nan nan nan nan nan nan nan nan nan nan nan nan nan nan nan nan nan nan nan nan nan nan nan nan nan nan nan nan nan nan nan nan nan nan nan nan nan nan nan nan nan nan nan nan nan nan nan nan nan nan nan nan nan nan nan nan nan nan nan nan nan nan nan nan nan nan nan nan nan nan nan nan nan nan nan nan nan nan nan nan nan nan nan nan
nan nan nan nan nan nan nan nan nan nan nan nan nan nan nan nan nan nan nan nan nan nan nan nan nan nan nan nan nan nan nan nan nan nan nan nan nan nan nan nan nan nan nan nan nan nan nan nan nan nan nan nan nan nan nan nan nan nan nan nan nan nan nan nan nan nan nan nan nan nan nan nan nan nan nan nan nan nan nan nan nan nan nan nan nan nan
nan nan nan nan nan nan nan nan nan nan nan nan nan nan nan nan nan nan nan nan nan nan nan nan nan nan nan nan nan nan nan nan nan nan nan nan nan nan nan nan nan nan nan nan nan nan nan nan nan nan nan nan nan nan nan nan nan nan nan nan nan nan nan nan nan nan nan nan nan nan nan nan nan nan nan nan nan nan nan nan nan nan nan nan nan nan
nan nan nan nan nan nan nan nan nan nan nan nan nan nan nan nan 0 0 nan nan nan nan nan nan nan nan nan nan nan nan nan nan nan nan nan nan nan nan nan nan nan nan nan nan nan nan nan nan nan nan nan nan nan nan nan nan nan nan nan nan nan nan nan nan nan nan nan nan nan nan nan nan nan nan nan nan nan nan nan nan nan nan nan nan nan nan
nan nan nan nan nan nan nan nan nan nan nan nan nan nan nan nan nan nan nan nan nan nan nan nan nan nan nan nan nan nan nan nan nan nan nan nan nan nan nan nan nan nan nan nan nan nan nan nan nan nan nan nan nan nan nan nan nan nan nan nan nan nan nan nan nan nan nan nan nan nan nan nan nan nan nan nan nan nan nan nan nan nan nan nan nan nan
nan nan nan nan nan nan nan nan nan nan nan nan nan nan nan nan nan nan nan nan nan nan nan nan nan nan nan nan nan nan nan nan nan nan nan nan nan nan nan nan nan nan nan nan nan nan nan nan nan nan nan nan nan nan nan nan nan nan nan nan nan nan nan nan nan nan nan nan nan nan nan nan nan nan nan nan nan nan nan nan nan nan nan nan nan nan
CIN
nan nan nan nan nan nan nan nan nan nan nan nan nan nan nan nan nan nan nan nan nan nan nan nan nan nan nan nan nan nan nan nan nan nan nan nan nan nan nan nan nan nan nan nan nan nan nan nan nan -0 nan nan nan nan nan nan nan nan nan nan nan nan nan nan nan nan nan nan nan nan nan nan nan nan nan nan nan nan nan nan nan nan nan nan nan nan
nan nan nan nan nan nan nan nan nan nan nan nan nan nan nan nan nan nan nan nan nan nan nan nan nan nan nan nan nan nan nan nan nan nan nan nan nan nan nan nan nan nan nan nan nan nan nan nan nan nan nan nan nan nan nan nan nan nan nan nan nan nan nan nan nan nan nan nan nan nan nan nan nan nan nan nan nan nan nan nan nan nan nan nan nan nan
nan nan nan nan nan nan nan nan nan nan nan nan nan nan nan nan nan nan nan nan nan nan nan nan nan nan nan nan nan nan nan nan nan nan nan nan nan nan nan nan nan nan nan nan nan nan nan nan nan nan nan nan nan nan nan nan nan nan nan nan nan nan nan nan nan nan nan nan nan nan nan nan nan nan nan nan nan nan nan nan nan nan nan nan nan nan
nan nan nan nan nan nan nan nan nan nan nan nan nan nan nan nan nan nan nan nan nan nan nan nan nan nan nan nan nan nan nan nan nan nan nan nan nan nan nan nan nan nan nan nan nan nan nan nan nan nan nan nan nan nan nan nan nan nan nan nan nan nan nan nan nan nan nan nan nan nan nan nan nan nan nan nan nan nan nan nan nan nan nan nan nan nan
nan nan nan nan nan nan nan nan nan nan nan nan nan nan nan nan nan nan nan nan nan nan nan nan nan nan nan nan nan nan nan nan nan nan nan nan nan nan nan nan nan -0 nan nan nan nan nan nan nan nan nan nan nan nan nan nan nan nan nan nan nan nan nan nan nan nan nan nan nan nan nan nan nan nan nan nan nan nan nan nan nan nan nan nan nan nan
nan nan nan nan nan nan nan nan nan nan nan nan nan nan nan nan nan nan nan nan nan nan nan nan nan nan nan nan nan nan nan nan nan nan nan nan nan nan nan -0 -0 -0 nan nan nan nan -0 -0 -0 -0 nan -0 -0 -0 -0 nan nan nan nan nan nan nan nan nan nan nan nan nan nan nan nan nan nan nan nan nan nan nan nan nan nan nan nan nan nan nan
nan nan nan nan nan nan nan nan nan nan nan nan nan nan nan nan nan nan nan nan nan nan nan nan nan nan nan nan nan nan nan nan nan nan nan -0 -0 -0 -0 -0 -0 -0 -0 -0 -0 -0 -0 -0 -0 -0 -0 -0 -0 -0 -0 nan nan nan nan nan nan nan nan nan nan nan nan nan nan nan nan nan nan nan nan nan nan nan nan nan nan nan nan nan nan nan
nan nan nan nan nan nan nan nan nan nan nan nan nan nan nan nan nan nan nan nan nan nan nan nan nan nan nan nan nan nan nan nan nan nan nan -0 -0 -0 -0 -0 -0 -0 -0 -0 -0 -0 -0 -0 -0 -0 -0 -0 -0 -0 nan nan nan nan nan nan nan nan nan nan nan nan nan nan nan nan nan nan nan nan nan nan nan nan nan nan nan nan nan nan nan nan
nan nan nan nan nan nan nan nan nan nan nan nan nan nan nan nan nan nan nan nan nan nan nan nan nan nan nan nan nan nan nan nan nan nan nan nan nan nan -0 -0 -0 -0 -0 -0 -0 -0 -0 -0 -0 -0 -0 -0 -0 -0 nan nan nan nan nan nan nan nan nan nan nan nan nan nan nan nan nan nan nan nan nan nan nan nan nan nan nan nan nan nan nan -0
nan nan nan nan nan nan nan nan nan nan nan nan nan nan nan nan nan nan nan nan nan nan nan nan nan nan nan nan nan nan nan -0 -0 -0 -0 nan -0 -0 -0 -1 -1 -0 -0 -0 -0 -0 -0 -0 -0 -0 -0 -0 -0 -0 nan nan nan nan nan nan nan nan nan nan nan nan nan nan nan nan nan nan nan nan nan nan nan nan nan nan nan nan nan nan nan -0
nan nan nan nan nan nan nan nan nan nan nan nan nan nan nan nan nan nan nan nan nan nan nan nan nan nan nan nan nan nan nan nan -0 -0 -0 -0 -0 -0 -0 -1 -1 -0 -0 -0 -0 -0 -0 -0 -0 -0 -0 -0 nan nan nan nan nan nan nan nan nan nan nan nan nan nan nan nan nan nan nan nan nan nan nan nan nan nan nan nan nan nan nan -0 -0 -0
nan nan nan nan nan nan nan nan nan nan nan nan nan nan nan nan nan nan nan nan nan nan nan nan nan nan nan nan nan nan nan nan nan nan nan nan nan nan nan -1 -1 -0 -0 -0 -0 -0 -0 -0 -0 -0 -0 nan nan nan nan nan nan nan nan nan nan nan nan nan nan nan nan nan nan nan nan nan nan nan nan nan nan nan nan nan nan nan nan -0 -0 -0
nan nan nan nan nan nan nan nan nan nan nan nan nan nan nan nan nan nan nan nan nan nan nan nan nan nan nan nan nan nan nan nan nan nan nan nan nan nan nan nan nan nan nan nan nan -0 -0 -0 -0 -0 -0 nan nan nan nan nan nan nan nan nan nan nan nan nan nan nan nan nan nan nan nan nan nan nan nan nan nan nan nan nan nan nan nan -0 -0 -0
nan nan nan nan nan nan nan nan nan nan nan nan nan nan nan nan nan nan nan nan nan nan nan nan nan nan nan nan nan nan nan nan nan nan nan nan nan nan nan nan nan nan nan nan nan nan -0 -0 -0 -2 -0 nan nan nan nan nan nan nan nan nan nan nan nan nan nan nan nan nan nan nan nan nan nan nan nan nan nan nan nan nan nan nan -0 -0 -0 -0
nan nan nan nan nan nan nan nan nan nan nan nan nan nan nan nan nan nan nan nan nan nan nan nan nan nan nan nan nan nan nan nan nan nan nan nan nan nan nan nan nan nan nan nan nan nan -0 nan nan nan nan nan nan nan nan nan nan nan nan nan nan nan nan nan nan nan nan nan nan nan nan nan nan nan nan nan nan nan nan nan nan nan -0 -0 -0 -0
nan nan nan nan nan nan nan nan nan nan nan nan nan nan nan nan nan nan nan nan nan nan nan nan nan nan nan nan nan nan nan nan nan nan nan nan nan nan nan nan nan nan nan nan nan nan nan nan nan nan nan nan nan nan nan nan nan nan nan nan nan nan nan nan nan nan nan nan nan nan nan nan nan nan nan nan nan nan nan nan nan nan -0 -0 -0 -0
nan nan nan nan nan nan nan nan nan nan nan nan nan nan nan nan nan nan nan nan nan nan nan nan nan nan nan nan nan nan nan nan nan nan nan nan nan nan nan nan nan nan nan nan nan nan nan nan nan nan nan -0 nan nan nan nan nan nan nan nan nan nan nan nan nan nan nan nan nan nan nan nan nan nan nan nan nan nan nan nan nan -0 -0 -0 -0 -0
nan nan nan nan nan nan nan nan nan nan nan nan nan nan nan nan nan nan nan nan nan nan nan nan nan nan nan nan nan nan nan nan nan nan nan nan nan nan nan nan nan nan nan nan nan nan nan nan nan nan -3 -0 nan nan nan nan nan nan nan nan nan nan nan nan nan nan nan nan nan nan nan nan nan nan nan nan nan nan nan nan nan -0 -0 -0 -0 -0
nan nan nan nan nan nan nan nan nan nan nan nan nan nan nan nan nan nan nan nan nan nan nan nan nan nan nan nan nan nan nan nan nan nan nan nan nan nan nan nan nan nan nan nan nan nan nan nan nan -0 -0 -0 nan nan nan nan nan nan nan nan nan nan nan nan nan nan nan nan nan nan nan nan nan nan nan nan nan nan nan nan nan -0 -0 -0 -0 -0
nan nan nan nan nan nan nan nan nan nan nan nan nan nan nan nan nan nan nan nan nan nan nan nan nan nan nan nan nan nan nan nan nan nan nan nan nan nan nan nan nan nan nan nan nan nan nan nan nan -5 -0 -0 -0 -0 nan nan nan nan nan nan nan nan nan nan nan nan nan nan nan nan nan nan nan nan nan nan nan nan nan -0 -0 -0 -0 -0 -0 -0
nan nan nan nan nan nan nan nan nan nan nan nan nan nan nan nan nan nan nan nan nan nan nan nan nan nan nan nan nan nan nan nan nan nan nan nan nan nan nan nan nan nan nan nan nan nan nan nan nan nan -0 -0 -0 -0 nan nan nan nan nan nan nan nan nan nan nan nan nan nan nan nan nan nan nan nan nan nan nan nan nan -0 -0 -0 -0 -0 -0 -0
nan nan nan nan nan nan nan nan nan nan nan nan nan nan nan nan nan nan nan nan nan nan nan nan nan nan nan nan nan nan nan nan nan nan nan nan nan nan nan nan nan nan nan nan nan nan nan nan nan nan -0 -0 -0 -0 nan nan nan nan nan nan nan nan nan nan nan nan nan nan nan nan nan nan nan nan nan nan nan nan nan -0 -0 -0 -0 nan nan -0
nan nan nan nan nan nan nan nan nan nan nan nan nan nan nan nan nan nan nan nan nan nan nan nan nan nan nan nan nan nan nan nan nan nan nan nan nan nan nan nan nan nan nan nan nan nan nan nan nan nan -0 -0 -0 -0 nan nan nan nan nan nan nan nan nan nan nan nan nan nan nan nan nan nan nan nan nan nan nan nan nan nan nan nan nan nan nan nan
nan nan nan nan nan nan nan nan nan nan nan nan nan nan nan nan nan nan nan nan nan nan nan nan nan nan nan nan nan nan nan nan nan nan nan nan nan nan nan nan nan nan nan nan nan nan nan nan nan nan -5 -0 nan nan nan nan nan nan nan nan nan nan nan nan nan nan nan nan nan nan nan nan nan nan nan nan nan nan nan nan nan nan nan nan nan nan
nan nan nan nan nan nan nan nan nan nan nan nan nan nan nan nan nan nan nan nan nan nan nan nan nan nan nan nan nan nan nan nan nan nan nan nan nan nan nan nan nan nan nan nan nan nan nan nan nan nan nan nan nan nan nan nan nan nan nan nan nan nan nan nan nan nan nan nan nan nan nan nan nan nan nan nan nan nan nan nan nan nan nan nan nan nan
nan nan nan nan nan nan nan -0 nan nan nan nan nan nan nan nan nan nan nan nan nan nan nan nan nan nan nan nan nan nan nan nan nan nan nan nan nan nan nan nan nan nan nan nan nan nan nan nan nan nan nan nan nan nan nan nan nan nan nan nan nan nan nan nan nan nan nan nan nan nan nan nan nan nan nan nan nan nan nan nan nan nan nan nan nan nan
-0 -0 -0 -0 -0 -0 -0 -0 -0 -0 -0 -0 nan nan nan nan nan nan nan nan nan nan nan nan nan nan nan nan nan nan nan nan nan nan nan nan nan nan nan nan nan nan nan nan nan nan nan nan nan nan nan nan nan nan nan nan nan nan nan nan nan nan nan nan nan nan nan nan nan nan nan nan nan nan nan nan nan nan nan nan nan nan nan nan nan nan
-0 -0 -0 -0 -0 -0 -0 -0 -0 -0 -0 -0 -0 -0 nan nan nan nan nan nan nan nan nan nan nan nan nan nan nan nan nan nan nan nan nan nan nan nan nan nan nan nan nan nan nan nan -0 nan nan nan nan nan nan nan nan nan nan nan nan nan nan nan nan nan nan nan nan nan nan nan nan nan nan nan nan nan nan nan nan nan nan nan nan nan nan nan
-0 -0 -0 -0 -0 -0 -0 -0 -0 -0 -0 -0 -0 -0 nan nan nan nan nan nan nan nan nan nan nan nan nan nan nan nan nan nan nan nan nan nan nan nan nan nan nan nan nan nan nan nan nan nan nan nan nan nan nan nan nan nan nan nan nan nan nan nan nan nan nan nan nan nan nan nan nan nan nan nan nan nan nan nan nan nan nan nan nan nan nan nan
nan nan -0 -0 -0 -0 -0 -0 -0 -0 -0 -0 nan nan nan nan nan nan nan nan nan nan nan nan nan nan nan nan nan nan nan nan nan nan nan nan nan nan nan nan nan nan nan nan nan nan nan nan nan nan nan nan nan nan nan nan nan nan nan nan nan nan nan nan nan nan nan nan nan nan nan nan nan nan nan nan nan nan nan nan nan nan nan nan nan nan
nan nan nan nan nan nan nan nan -0 -0 -0 -0 -0 -0 nan nan nan nan nan nan nan nan nan nan nan nan nan nan nan nan nan nan nan nan nan nan nan nan nan nan nan nan nan nan nan nan nan nan nan nan nan nan nan nan nan nan nan nan nan nan nan nan nan nan nan nan nan nan nan nan nan nan nan nan nan nan nan nan nan nan nan nan nan nan nan nan
nan nan nan nan nan nan nan nan nan nan nan nan nan nan nan nan nan nan nan nan nan nan nan nan nan nan nan nan nan nan nan nan -0 -0 nan nan nan nan nan nan nan nan nan nan nan nan nan nan nan nan nan nan nan nan nan nan nan nan nan nan nan nan nan nan nan nan nan nan nan nan nan nan nan nan nan nan nan nan nan -0 -0 -0 nan nan nan nan
nan nan nan nan nan nan nan nan nan nan nan nan nan nan nan nan nan nan nan nan nan nan nan nan nan nan nan nan nan nan nan nan -0 -0 nan nan nan nan nan nan nan nan nan nan nan nan nan nan nan nan nan nan nan nan nan nan nan nan nan nan nan nan nan nan nan nan nan nan nan nan nan nan nan nan nan nan nan nan nan -0 -0 -0 nan nan nan nan
nan nan nan nan nan nan nan nan nan nan nan nan nan nan nan nan nan nan nan nan nan nan nan nan nan nan nan nan nan nan nan nan -0 -0 nan nan nan nan nan nan nan nan nan nan nan nan nan nan nan nan nan nan nan nan nan nan nan nan nan nan nan nan nan nan nan nan nan nan nan nan nan nan nan nan nan nan nan nan nan -0 -0 -0 -0 nan nan nan
nan nan nan nan nan nan nan nan nan nan nan nan nan nan nan nan nan nan nan nan nan nan nan nan nan nan nan nan nan nan nan nan -0 -0 nan nan nan nan nan nan nan nan nan nan nan nan nan nan nan nan nan nan nan nan nan nan nan nan nan nan nan nan nan nan nan nan nan nan nan nan nan nan nan nan nan nan nan nan nan nan nan -0 -0 -0 -0 nan
nan nan nan nan nan nan nan nan nan nan nan nan nan nan nan nan nan nan nan nan nan nan nan nan nan nan nan nan nan nan nan nan -1 -1 nan nan nan nan nan nan nan nan nan nan nan nan nan nan nan nan nan nan nan nan nan nan nan nan nan nan nan nan nan nan nan nan nan nan nan nan nan nan nan nan nan nan nan nan nan nan nan -0 -0 -0 -0 -2
nan nan nan nan nan nan nan nan nan nan nan nan nan nan nan nan nan nan nan nan nan nan nan nan nan nan nan nan nan nan nan nan nan nan nan nan nan nan nan nan nan nan nan nan nan nan nan nan nan nan nan nan nan nan nan nan nan nan nan nan nan nan nan nan nan nan nan nan nan nan nan nan nan nan nan nan nan nan nan nan nan nan nan nan nan -2
nan nan nan nan nan nan nan nan nan nan nan nan nan nan nan nan nan nan nan nan nan nan nan nan nan nan nan nan nan nan nan nan nan nan nan nan nan nan nan nan nan nan nan nan nan nan nan nan nan nan nan nan nan nan nan nan nan nan nan nan nan nan nan nan nan nan nan nan nan nan nan nan nan nan nan nan nan nan nan nan nan nan nan nan nan nan
nan nan nan nan nan nan nan nan nan nan nan nan nan nan nan nan nan nan nan nan nan nan nan nan nan nan nan nan nan nan nan nan nan nan nan nan nan nan nan nan nan nan nan nan nan nan nan nan nan nan nan nan nan nan nan nan nan nan nan nan nan nan nan nan nan nan nan nan nan nan nan nan nan nan nan nan nan nan nan nan nan nan nan nan nan nan
nan nan nan nan nan nan nan nan nan nan nan nan nan nan nan nan nan nan nan nan nan nan nan nan nan nan nan nan nan nan nan nan nan nan nan nan nan nan nan nan nan nan nan nan nan nan nan nan nan nan nan nan nan nan nan nan nan nan nan nan nan nan nan nan nan nan nan nan nan nan nan nan nan nan nan nan nan nan nan nan nan nan nan nan nan nan
nan nan nan nan nan nan nan nan nan nan nan nan nan nan nan nan nan nan nan nan nan nan nan nan nan nan nan nan nan nan nan nan nan nan nan nan nan nan nan nan nan nan nan nan nan nan nan nan nan nan nan nan nan nan nan nan nan nan nan nan nan nan nan nan nan nan nan nan nan nan nan nan nan nan nan nan nan nan nan nan nan nan nan nan nan nan
nan nan nan nan nan nan nan nan nan nan nan nan nan nan nan nan nan nan nan nan nan nan nan nan nan nan nan nan nan nan nan nan nan nan nan nan nan nan nan nan nan nan nan nan nan nan nan nan nan nan nan nan nan nan nan nan nan nan nan nan nan nan nan nan nan nan nan nan nan nan nan nan nan nan nan nan nan nan nan nan nan nan nan nan nan nan
nan nan nan nan nan nan nan nan nan nan nan nan nan nan nan nan nan nan nan nan nan nan nan nan nan nan nan nan nan nan nan nan nan nan nan nan nan nan nan nan nan nan nan nan nan nan nan nan nan nan nan nan nan nan nan nan nan nan nan nan nan nan nan nan nan nan nan nan nan nan nan nan nan nan nan nan nan nan nan nan nan nan nan nan nan nan
nan nan nan nan nan nan nan nan nan nan nan nan nan nan nan nan nan nan nan nan nan nan nan nan nan nan nan nan nan nan nan nan nan nan nan nan nan nan nan nan nan nan nan nan nan nan nan nan nan nan nan nan nan nan nan nan nan nan nan nan nan nan nan nan nan nan nan nan nan nan nan nan nan nan nan nan nan nan nan nan nan nan nan nan nan nan
nan nan nan nan nan nan nan nan nan nan nan nan nan nan nan nan nan nan nan nan nan nan nan nan nan nan nan nan nan nan nan nan nan nan nan -0 -0 -0 nan nan nan nan nan nan nan nan nan nan nan nan nan nan nan nan nan nan nan nan nan nan nan nan nan nan nan nan nan nan nan nan nan nan nan nan nan nan nan nan nan nan nan nan nan nan nan nan
nan nan nan nan nan nan nan nan nan nan nan nan nan nan nan nan nan nan nan nan nan nan nan nan nan nan nan nan nan nan nan nan nan nan nan nan nan nan nan nan nan nan nan nan nan nan nan nan nan nan nan nan nan nan nan nan nan nan nan nan nan nan nan nan nan nan nan nan nan nan nan nan nan nan nan nan nan nan nan nan nan nan nan nan nan nan
nan nan nan nan nan nan nan nan nan nan nan nan nan nan nan nan nan nan nan nan nan nan nan nan nan nan nan nan nan nan nan nan nan nan nan nan nan nan nan nan nan nan nan nan nan nan nan nan nan nan nan nan nan nan nan nan nan nan nan nan nan nan nan nan nan nan nan nan nan nan nan nan nan nan nan nan nan nan nan nan nan nan nan nan nan nan
nan nan nan nan nan nan nan nan nan nan nan nan nan nan nan nan nan nan nan nan nan nan nan nan nan nan nan nan nan nan nan nan nan nan nan nan nan nan nan nan nan nan nan nan nan nan nan nan nan nan nan nan nan nan nan nan nan nan nan nan nan nan nan nan nan nan nan nan nan nan nan nan nan nan nan nan nan nan nan nan nan nan nan nan nan nan
nan nan nan nan nan nan nan nan nan nan nan nan nan nan nan nan -0 -0 nan nan nan nan nan nan nan nan nan nan nan nan nan nan nan nan nan nan nan nan nan nan nan nan nan nan nan nan nan nan nan nan nan nan nan nan nan nan nan nan nan nan nan nan nan nan nan nan nan nan nan nan nan nan nan nan nan nan nan nan nan nan nan nan nan nan nan nan
nan nan nan nan nan nan nan nan nan nan nan nan nan nan nan nan nan nan nan nan nan nan nan nan nan nan nan nan nan nan nan nan nan nan nan nan nan nan nan nan nan nan nan nan nan nan nan nan nan nan nan nan nan nan nan nan nan nan nan nan nan nan nan nan nan nan nan nan nan nan nan nan nan nan nan nan nan nan nan nan nan nan nan nan nan nan
nan nan nan nan nan nan nan nan nan nan nan nan nan nan nan nan nan nan nan nan nan nan nan nan nan nan nan nan nan nan nan nan nan nan nan nan nan nan nan nan nan nan nan nan nan nan nan nan nan nan nan nan nan nan nan nan nan nan nan nan nan nan nan nan nan nan nan nan nan nan nan nan nan nan nan nan nan nan nan nan nan nan nan nan nan nan
Wind_Speed
3 4 4 5 4 2 3 4 4 4 4 3 3 3 4 4 4 4 5 5 5 5 4 4 3 4 7 10 12 13 14 15 16 17 18 18 18 18 19 19 20 20 22 23 24 25 26 27 27 27 26 26 25 24 23 22 21 20 19 19 18 17 17 16 15 14 13 12 11 10 9 8 7 6 6 6 5 5 5 5 6 6 7 8 9 10
4 4 5 6 5 2 2 4 5 4 4 4 4 3 4 5 4 4 4 5 5 5 5 5 5 5 7 8 11 13 14 15 15 16 16 16 16 18 19 21 22 24 25 26 26 26 26 26 26 26 25 25 24 24 23 21 20 19 18 18 18 17 16 15 15 14 13 12 11 10 9 8 8 7 6 6 5 5 5 6 6 7 7 8 9 10
4 4 5 5 5 4 2 3 4 4 5 5 4 5 6 6 5 4 4 4 5 5 5 5 6 6 7 7 9 11 12 13 14 15 15 16 17 19 21 23 24 25 26 27 26 26 26 26 25 25 25 25 24 24 22 21 20 19 18 18 17 17 16 15 14 13 13 12 11 11 10 9 8 7 6 6 5 6 6 6 7 7 8 9 10 11
4 4 4 4 4 4 4 3 3 4 4 5 6 6 7 6 5 5 4 5 5 6 6 6 6 6 6 6 8 10 12 14 15 16 18 19 21 23 24 25 26 26 26 26 26 26 26 26 25 25 25 25 24 24 22 21 20 19 19 18 17 17 16 15 14 13 13 12 12 11 10 9 8 7 6 6 6 6 7 7 8 8 9 10 10 11
4 3 3 3 4 4 5 4 4 4 4 5 6 7 7 6 5 5 5 6 7 7 7 7 7 7 6 6 7 11 14 17 19 20 22 24 24 25 26 26 26 26 26 26 26 27 26 26 26 26 25 25 24 23 22 21 20 20 19 18 18 17 16 15 14 13 12 12 12 11 10 9 8 6 6 6 6 6 7 8 8 9 9 10 11 11
3 3 3 3 3 4 4 4 4 4 4 5 6 6 6 6 6 6 6 6 7 7 7 7 8 8 8 8 10 13 16 19 21 23 25 26 26 27 26 26 26 26 26 27 27 27 27 27 26 26 25 25 24 23 22 22 21 20 19 18 17 17 16 15 14 13 12 12 12 11 10 8 7 6 6 6 6 6 7 8 9 9 10 10 11 12
3 3 3 3 3 3 4 4 4 4 3 4 5 6 6 6 6 7 7 6 6 7 7 8 9 9 10 11 13 14 16 18 20 22 24 26 27 27 27 26 26 26 27 27 27 27 27 26 26 25 25 24 23 23 22 21 20 20 19 18 17 16 15 14 13 12 12 12 11 10 9 8 7 6 5 5 6 6 7 8 9 10 10 11 11 12
3 4 4 4 4 4 4 4 4 4 3 3 4 5 6 6 6 7 8 7 7 7 7 8 9 9 10 11 11 12 12 13 14 16 18 21 24 25 26 27 27 27 27 27 27 27 26 26 25 25 24 23 23 22 22 21 20 19 18 17 17 16 15 14 13 12 12 11 10 10 9 7 6 5 5 5 6 6 7 8 9 10 10 11 12 12
4 4 4 4 4 4 4 4 4 4 3 3 4 5 6 6 6 6 7 7 7 6 6 7 8 9 8 8 9 9 10 10 10 10 11 13 16 20 23 25 26 27 27 27 26 26 25 25 25 24 23 23 22 22 21 20 20 19 18 17 16 15 14 13 13 12 11 10 10 9 8 7 6 5 5 5 6 6 7 8 9 10 11 11 12 12
4 4 4 4 4 3 3 3 3 4 4 3 4 5 5 5 6 6 7 7 6 5 5 7 8 8 7 7 7 8 10 11 12 13 13 14 16 18 20 21 22 23 26 26 26 25 25 24 24 23 23 22 22 21 21 20 19 18 17 16 15 14 13 13 12 12 11 10 9 8 7 6 5 5 5 5 6 6 7 8 9 10 10 11 12 12
3 3 3 3 3 3 3 3 3 3 4 4 5 5 5 4 5 6 8 6 5 5 5 6 6 6 6 6 6 7 8 10 11 13 15 18 19 20 21 21 21 22 24 24 24 24 24 23 23 22 22 21 21 21 20 19 19 18 17 16 15 14 13 13 12 11 10 9 8 7 7 6 5 5 5 5 6 7 7 8 9 10 10 11 12 12
3 2 2 2 2 2 3 3 3 3 3 4 4 5 5 4 3 5 7 7 6 5 5 5 5 5 5 5 5 6 7 8 8 8 9 11 13 15 16 17 18 19 19 20 21 22 23 22 22 21 20 20 20 20 19 18 18 17 16 15 14 13 13 12 12 10 9 8 7 6 6 5 5 5 5 6 6 7 8 8 9 10 11 11 12 12
2 2 2 2 3 3 2 3 3 3 4 4 4 4 3 3 3 4 6 6 5 5 5 5 5 5 5 4 4 4 5 6 6 6 6 6 7 8 8 10 10 11 11 12 13 14 18 19 19 19 19 19 19 19 18 18 17 16 15 15 14 14 13 12 11 9 8 7 6 6 6 5 5 5 5 6 7 7 8 9 9 10 11 11 12 12
3 2 3 3 3 3 3 3 3 3 4 3 3 3 2 2 3 4 5 5 4 4 5 6 5 5 5 5 4 3 4 5 5 5 5 5 4 4 5 7 7 7 7 7 8 9 12 12 13 14 16 17 17 17 17 17 16 15 15 14 14 13 13 11 10 8 7 6 5 5 5 5 5 6 6 7 7 8 8 9 9 10 11 11 12 12
2 3 3 3 3 3 3 3 3 3 3 3 3 2 3 3 3 4 5 5 4 4 5 6 6 5 4 4 4 3 3 4 5 5 6 5 4 4 4 6 6 6 5 6 7 8 9 8 8 9 11 13 14 14 14 14 14 14 14 14 13 13 12 11 9 7 6 5 5 5 5 5 6 6 7 7 7 8 8 9 10 10 11 11 12 12
2 2 3 3 3 2 3 3 3 3 3 2 2 3 3 3 3 3 5 5 5 4 5 6 6 5 4 3 4 3 2 3 4 6 7 5 4 4 4 5 6 6 5 6 6 6 6 6 6 7 9 12 14 15 15 14 14 13 13 13 12 12 11 10 9 7 6 5 5 5 6 6 6 7 7 7 8 8 9 9 10 10 11 11 12 12
2 2 2 3 3 2 2 3 3 2 2 2 3 3 3 3 3 3 3 4 4 4 4 5 5 5 3 2 3 3 3 2 4 5 7 5 4 4 4 4 6 7 6 6 6 5 5 5 5 6 8 13 15 15 14 13 13 12 12 11 11 11 10 9 8 7 5 5 5 6 6 6 7 7 7 7 8 8 9 9 10 10 11 11 11 12
2 2 2 2 2 2 2 2 2 2 2 2 3 3 3 3 3 3 3 3 3 3 2 3 3 4 4 2 1 2 3 2 3 4 6 5 4 4 4 4 5 6 6 6 5 5 5 5 5 6 9 13 14 14 13 12 12 11 11 10 10 10 9 9 8 6 6 6 6 6 6 7 7 7 7 8 8 9 9 10 10 10 11 11 11 12
2 2 2 2 2 2 2 2 2 2 2 2 2 3 3 3 3 3 3 2 2 2 2 2 2 3 3 3 2 2 3 2 3 4 6 5 4 3 3 3 5 6 6 6 5 5 4 4 7 10 13 14 14 13 12 12 11 10 10 9 9 9 9 8 7 7 6 6 6 7 7 7 7 7 8 8 8 9 9 10 10 10 11 11 11 12
2 2 2 2 2 2 2 2 2 2 2 2 3 3 3 3 3 3 3 3 3 3 3 3 3 3 3 3 2 3 3 2 3 4 5 5 4 3 3 3 4 5 6 5 4 3 4 4 6 9 13 13 13 13 12 11 10 9 9 8 8 8 8 8 7 7 6 7 7 7 7 7 7 8 8 8 8 9 9 10 10 10 11 11 11 12
2 2 1 1 1 2 1 1 2 2 3 4 4 4 3 3 3 3 3 3 3 4 4 4 4 3 2 3 3 2 3 2 2 3 3 4 3 3 2 3 4 5 6 5 4 4 4 4 4 6 9 11 12 12 11 10 9 9 8 8 8 8 8 7 7 7 7 7 7 7 7 7 8 8 8 8 8 9 9 9 10 10 10 11 11 12
2 1 1 1 1 2 2 2 3 4 4 5 4 4 3 2 2 3 3 3 4 4 5 4 4 3 3 4 3 3 4 3 2 2 3 3 3 3 2 2 4 5 6 4 3 3 4 4 4 5 9 11 11 11 10 9 9 8 7 7 7 7 7 7 7 7 7 7 7 7 7 8 8 8 8 8 8 9 9 9 9 10 10 11 12 12
2 2 1 2 2 3 3 3 4 4 4 4 4 4 3 3 3 3 3 4 4 5 5 4 4 4 4 4 4 4 5 4 3 2 3 4 3 2 1 2 3 4 4 3 3 3 4 4 4 5 8 10 11 10 9 8 8 7 7 7 7 7 7 7 7 7 7 7 7 7 8 8 8 8 8 8 8 8 9 9 9 10 10 11 12 12
3 3 3 3 3 3 3 4 4 4 4 5 5 5 5 5 5 5 4 4 5 5 4 5 5 5 5 5 5 5 5 5 4 2 2 3 3 2 1 2 4 5 4 3 3 3 4 4 4 4 5 8 9 9 8 8 7 7 6 7 7 7 7 7 7 7 7 7 7 8 8 8 8 7 7 7 8 8 8 9 9 10 11 11 12 12
3 3 3 3 4 5 5 5 5 5 5 6 6 7 7 8 8 7 6 6 5 5 5 5 5 4 4 4 4 4 4 4 4 3 2 3 3 2 1 2 3 4 4 3 3 3 4 4 4 4 4 5 7 8 8 7 7 6 7 7 7 7 7 7 7 7 7 8 8 8 8 8 7 7 7 7 7 8 8 9 9 10 10 11 12 12
4 4 5 6 7 9 10 10 10 10 10 8 7 7 8 8 8 7 6 5 5 5 6 5 4 3 2 2 2 3 3 4 3 3 2 3 3 3 2 2 3 4 4 3 3 3 4 3 3 3 3 4 5 6 7 7 7 7 7 8 8 8 8 7 7 7 8 8 8 8 7 7 7 7 7 7 7 8 8 8 9 10 10 10 11 11
7 8 9 10 11 12 12 13 14 14 14 13 11 10 8 8 7 7 6 5 5 5 6 5 4 3 2 2 2 2 2 3 3 3 2 2 3 3 2 2 3 4 4 3 3 3 4 3 3 3 3 3 3 5 6 7 7 7 8 8 8 8 8 8 7 8 8 8 8 7 7 7 6 6 6 7 7 8 8 8 9 9 9 9 8 8
8 9 10 10 11 12 12 13 14 15 15 15 15 13 9 7 7 7 6 5 5 5 5 5 4 3 2 1 1 1 2 2 2 2 2 2 3 3 2 2 3 4 4 3 3 3 4 3 2 2 2 2 3 3 5 6 7 8 8 9 8 8 8 8 8 8 8 8 7 7 7 6 6 6 6 7 7 8 8 8 8 8 8 6 5 5
8 9 10 10 11 11 11 11 12 13 14 15 14 11 7 5 5 6 6 5 5 5 5 4 4 3 3 2 1 1 2 2 2 2 2 2 3 3 2 2 2 3 3 3 2 2 2 2 2 2 2 3 3 3 3 5 5 6 7 8 8 8 8 8 8 8 8 7 7 7 7 6 6 6 6 7 7 8 8 8 8 6 5 4 4 4
6 6 7 8 8 8 8 7 8 10 12 12 10 7 4 3 4 5 6 5 5 5 5 5 4 4 4 3 2 2 1 0 1 1 1 3 3 2 2 2 2 2 2 3 2 1 1 1 2 2 2 3 3 3 3 3 3 3 4 6 7 7 8 8 8 8 8 8 7 7 7 6 6 6 7 7 8 8 8 8 7 5 3 3 3 4
4 4 4 5 5 5 5 4 5 6 7 7 6 4 3 3 3 4 5 5 5 5 6 5 5 4 4 3 3 2 1 2 2 2 2 3 3 3 3 3 2 2 1 2 2 2 1 1 1 2 2 2 2 2 2 2 2 2 3 4 5 6 7 8 8 8 8 8 7 7 7 7 7 7 7 7 8 8 8 9 7 5 2 2 3 4
4 4 3 3 3 3 4 4 4 4 4 4 4 4 4 3 3 3 4 4 4 5 6 6 5 5 4 3 2 2 2 3 4 4 3 3 3 3 3 3 3 1 1 1 1 2 3 1 1 1 2 2 2 2 2 2 2 2 3 3 3 4 6 7 7 7 7 7 7 7 7 7 7 7 7 7 8 8 8 9 8 6 3 2 3 4
3 3 3 3 3 3 3 3 3 3 3 3 3 3 3 3 3 3 2 2 3 4 5 6 6 5 4 3 2 2 2 3 5 6 5 4 3 3 3 3 3 2 1 1 2 2 2 2 2 1 1 1 1 2 2 2 2 3 3 3 3 3 5 5 5 5 5 6 6 6 7 8 8 8 8 8 8 8 8 9 8 7 4 2 2 3
3 3 3 3 3 3 3 3 3 3 3 3 3 3 3 3 3 2 2 2 2 2 4 5 6 6 5 4 2 2 1 3 6 7 6 4 4 4 4 4 4 3 2 1 1 2 2 2 2 2 1 1 1 2 2 2 2 3 3 3 2 3 3 4 4 4 4 4 4 4 5 6 7 7 7 7 8 8 8 9 9 8 7 4 2 3
3 3 3 3 3 3 3 3 3 3 3 3 3 3 3 3 3 3 3 3 3 2 2 2 3 4 5 5 4 3 2 4 6 8 6 4 4 4 4 4 4 4 3 2 2 2 2 2 2 3 3 1 1 2 2 2 2 2 2 3 2 2 2 3 3 3 3 3 3 3 4 4 4 5 6 7 7 8 8 9 9 9 8 7 5 3
3 3 3 3 3 3 3 3 3 3 3 3 3 3 3 3 3 3 3 3 3 3 4 3 2 2 2 3 4 4 4 5 7 8 7 5 4 4 4 4 4 4 3 3 2 2 2 2 3 3 3 2 1 1 2 2 2 2 2 3 3 3 3 3 2 2 2 3 3 3 3 4 4 4 5 6 7 8 8 8 9 9 9 8 8 6
2 2 2 2 2 3 3 3 3 3 3 3 3 3 3 3 3 3 3 3 3 4 4 4 4 4 3 2 2 3 4 6 7 7 7 4 4 3 4 4 4 4 3 3 3 3 3 3 3 3 3 2 2 1 0 1 2 2 3 3 3 3 3 3 3 2 2 3 3 3 3 3 4 4 4 6 7 7 7 8 8 9 9 9 9 9
2 2 2 2 2 2 2 2 2 2 2 2 3 3 3 4 4 4 3 4 4 4 4 4 4 5 6 6 5 4 5 6 7 7 6 4 3 3 4 4 4 3 2 3 3 4 4 4 4 3 2 2 2 2 2 1 2 2 2 2 2 2 2 2 3 2 2 3 3 3 3 3 3 3 4 4 5 5 5 5 6 7 8 8 8 9
2 2 2 2 2 2 2 2 2 2 2 3 3 3 4 4 5 5 4 4 4 5 5 5 5 5 6 6 6 7 7 7 7 7 6 4 3 3 4 5 4 4 3 2 3 3 3 3 4 4 4 3 2 2 2 2 2 1 1 2 2 2 2 2 3 3 3 3 3 3 3 3 3 3 3 3 3 3 4 4 4 5 5 5 6 7
2 2 2 2 2 2 3 3 3 3 3 3 4 4 4 4 4 4 4 4 5 5 5 6 5 5 6 6 6 6 6 5 5 5 4 3 3 3 4 5 5 4 4 2 2 2 2 2 3 3 4 4 4 3 2 1 1 1 1 1 1 2 2 2 2 2 2 2 2 3 3 3 3 3 3 3 3 3 3 3 3 4 4 3 3 4
2 2 2 2 3 3 3 3 3 3 3 3 3 3 3 4 3 3 3 4 4 4 4 5 5 5 6 6 6 6 5 5 5 5 4 4 4 4 4 4 4 4 4 3 2 2 3 3 3 3 3 4 4 4 4 3 2 2 2 1 1 0 1 2 2 2 2 2 2 2 3 3 3 4 4 4 3 3 3 3 3 3 3 3 2 3
2 2 2 2 3 3 3 3 3 3 3 3 3 3 3 3 3 3 3 3 3 3 2 3 4 4 5 5 5 5 5 5 5 5 5 5 5 5 4 4 4 4 4 4 3 3 3 4 4 4 3 4 4 4 3 3 2 1 1 1 1 0 2 2 2 2 2 2 2 2 3 3 3 3 3 3 3 3 3 3 3 4 4 3 3 3
2 3 3 3 3 3 4 4 4 3 3 3 3 2 2 2 3 3 4 3 3 3 2 3 3 4 4 4 4 4 4 5 5 5 5 5 5 5 5 5 4 4 4 4 4 4 4 4 4 4 3 4 5 5 4 3 2 1 1 1 1 1 1 1 2 2 2 2 2 2 2 2 2 2 3 3 3 3 3 3 3 4 5 3 3 3
3 3 3 3 3 3 3 3 3 3 3 3 3 2 2 2 3 3 4 3 3 3 3 3 3 4 4 4 3 3 3 4 5 5 5 5 5 5 5 5 4 4 3 4 4 4 4 4 4 3 3 3 4 4 4 3 2 1 0 0 0 1 2 1 1 2 3 2 2 1 1 2 2 2 2 2 2 2 3 3 3 4 4 4 3 3
3 3 3 3 3 3 3 3 3 3 3 3 3 2 2 2 3 3 3 3 3 3 3 3 3 3 3 3 3 3 3 3 3 4 4 5 6 7 5 4 4 3 3 3 3 4 5 5 4 3 3 3 4 4 4 3 3 2 1 1 0 0 1 0 0 1 2 2 2 2 2 2 2 2 2 2 2 2 2 3 4 4 4 4 4 4
3 3 3 3 3 3 3 3 3 3 3 3 3 2 2 2 2 3 4 4 4 3 3 2 3 3 3 3 3 3 3 3 3 3 3 4 4 4 5 4 4 3 3 3 3 3 4 4 5 5 4 4 4 3 3 3 3 2 2 1 1 0 0 1 1 1 1 1 2 2 3 2 2 2 2 2 2 2 2 3 4 4 4 4 4 4
4 4 3 3 3 3 3 3 3 3 3 3 2 2 2 2 2 3 3 3 3 3 3 2 2 3 4 4 4 4 4 4 3 3 3 3 3 4 4 4 5 5 5 4 5 5 4 4 4 5 5 5 4 3 2 2 2 2 2 1 1 1 1 0 1 1 1 1 1 2 3 2 2 2 1 1 1 2 3 3 4 4 4 4 4 4
4 4 4 3 3 3 3 3 3 3 3 3 3 2 2 3 3 4 3 3 3 3 3 3 3 3 3 3 3 4 5 5 4 4 4 4 4 4 4 4 4 5 6 6 6 6 5 5 4 4 4 4 4 4 3 2 1 1 1 1 1 1 2 1 1 1 1 1 1 1 2 1 1 1 0 0 1 2 3 3 4 4 4 4 4 4
3 3 4 4 4 4 4 3 3 3 3 3 3 3 2 3 4 4 3 3 3 3 3 3 4 4 4 3 4 4 5 5 5 4 4 4 4 4 4 4 4 5 5 6 6 6 6 6 6 6 4 4 4 4 4 3 2 1 0 0 1 1 2 1 1 1 1 1 1 1 1 1 1 1 1 1 2 3 3 4 4 4 4 4 4 4
2 2 3 3 4 4 4 4 4 4 4 4 4 3 3 3 3 3 3 3 3 3 3 3 4 4 4 4 4 5 5 5 4 4 4 4 4 4 4 4 5 5 5 4 4 4 4 5 5 6 7 6 5 4 4 3 2 1 1 0 0 1 1 1 1 1 1 2 1 1 1 1 1 1 1 1 2 3 4 4 4 4 4 4 4 5
2 2 2 3 3 3 4 4 4 4 4 4 4 4 3 3 3 2 2 2 2 2 3 3 3 4 4 5 5 5 5 5 5 5 5 4 5 5 5 5 5 5 5 4 4 3 3 3 3 4 6 7 6 4 3 3 3 2 2 1 0 0 1 0 0 1 1 1 1 1 1 1 1 1 1 1 2 3 4 4 4 4 4 4 4 5
Wind_Direction
5 359 359 3 14 60 98 107 107 104 97 88 82 78 74 70 70 77 89 97 100 99 95 92 106 130 145 150 154 158 161 163 164 164 163 159 155 150 146 145 144 142 141 139 138 136 134 133 132 131 130 128 126 124 122 122 122 121 121 120 120 119 119 119 119 118 117 115 112 108 102 94 85 75 64 53 42 30 20 10 2 353 345 337 332 329
4 5 8 8 13 38 96 109 111 110 107 99 92 85 82 76 70 65 69 76 81 84 86 86 90 99 115 132 146 153 157 161 163 162 159 154 149 144 139 138 137 137 137 136 135 134 132 130 128 127 125 123 121 119 118 118 118 118 118 118 118 118 119 119 119 118 116 114 110 104 97 89 79 69 59 47 35 23 13 5 357 349 342 337 334 331
4 8 6 5 12 26 56 89 99 103 104 99 94 88 84 79 72 64 64 69 70 71 73 78 84 89 95 111 132 144 147 151 153 151 145 139 135 133 132 132 132 133 133 132 131 129 126 124 122 121 119 118 117 116 116 117 117 117 117 117 117 116 116 116 116 114 112 109 104 98 91 84 75 65 54 42 29 17 8 1 354 347 341 338 335 333
10 10 356 358 12 24 27 43 63 79 89 91 88 84 79 75 68 62 60 65 65 63 60 65 73 81 87 99 116 128 131 133 133 132 128 126 125 126 126 127 128 128 128 127 125 122 120 118 117 116 115 115 115 115 115 116 115 115 114 114 113 112 111 110 109 108 105 102 98 92 86 80 72 62 50 36 23 12 4 357 351 346 342 339 337 334
12 9 350 358 15 24 21 25 36 52 71 79 79 77 72 70 66 61 58 62 63 62 58 58 63 69 77 84 101 112 117 120 121 121 121 121 122 122 122 123 123 123 122 120 117 115 114 113 113 113 113 114 114 115 115 114 114 113 112 111 110 109 107 106 105 103 101 98 93 89 84 78 70 60 46 32 19 9 1 355 350 346 343 340 338 335
5 4 355 15 26 28 22 23 27 37 53 67 70 70 67 66 64 61 57 60 62 63 61 59 60 63 68 72 85 96 104 110 114 117 119 119 120 119 119 118 118 117 115 113 112 111 111 111 112 112 113 114 114 114 114 113 113 112 111 111 109 108 106 105 104 102 99 95 91 87 83 77 69 58 43 29 16 6 359 353 349 346 343 341 338 336
2 4 12 28 33 33 32 26 22 23 37 65 71 69 66 64 62 60 58 60 65 68 68 65 64 64 66 71 78 86 93 100 106 111 116 117 117 116 115 114 112 111 110 109 109 110 110 111 112 112 113 114 114 114 114 113 113 113 112 111 109 108 107 105 104 101 97 93 90 87 83 77 68 56 41 26 13 5 358 353 349 346 343 341 338 336
18 16 23 27 30 32 35 29 17 9 10 62 78 78 73 69 65 62 58 58 62 69 74 72 68 65 65 70 75 79 84 90 96 102 110 112 113 112 111 110 109 108 108 108 109 110 111 112 112 113 113 114 114 114 114 113 113 112 111 110 109 108 107 105 103 99 95 91 89 86 83 76 68 54 38 23 12 4 358 353 349 346 343 340 338 336
38 30 26 25 27 30 37 27 13 0 358 43 75 86 90 85 79 71 63 55 54 59 73 78 76 72 66 67 71 75 78 81 86 92 102 105 107 107 107 107 107 107 108 109 109 110 111 112 112 113 113 114 114 113 113 112 111 110 109 108 107 106 105 103 100 96 92 90 88 86 82 76 66 52 36 22 11 4 358 353 349 345 342 340 337 335
42 37 29 23 24 30 41 29 11 360 6 38 61 75 87 93 93 86 76 62 52 49 63 77 82 82 75 69 70 74 78 80 83 88 93 96 99 102 102 103 104 106 107 108 109 110 111 111 112 113 113 113 112 111 110 109 108 107 106 105 105 104 102 100 96 93 90 88 87 85 81 74 64 50 33 21 11 4 358 353 349 345 342 339 337 335
31 28 26 17 15 20 34 29 13 6 20 49 58 59 59 71 87 94 91 81 68 57 58 67 77 84 86 80 76 77 81 83 83 85 89 92 94 96 97 98 100 103 104 106 107 108 109 110 111 111 111 110 110 109 107 106 105 105 104 104 103 101 98 95 92 90 88 87 86 83 78 71 60 45 31 20 12 5 359 353 348 344 341 339 337 335
22 18 20 15 12 13 17 14 8 8 22 50 61 60 46 37 60 89 98 95 88 79 73 66 63 66 76 83 85 85 85 88 88 86 85 88 90 92 95 96 97 99 100 102 103 105 106 107 107 108 108 108 107 106 105 105 104 104 104 103 101 98 94 92 89 88 87 86 84 79 74 66 54 41 28 20 13 6 359 353 348 344 341 339 337 336
22 20 22 22 22 19 13 11 12 15 19 34 54 65 60 38 50 77 92 91 89 87 88 80 66 53 48 55 72 88 93 93 92 89 84 81 83 88 93 94 95 96 97 98 99 100 103 103 104 104 105 105 105 104 104 104 105 105 104 103 100 97 93 91 89 87 87 84 81 75 69 60 49 37 27 20 13 6 358 352 347 344 341 339 338 337
22 22 29 30 27 21 15 20 27 31 27 26 34 49 60 60 72 83 90 85 81 80 86 86 78 61 41 34 42 69 97 99 96 88 78 69 66 73 87 92 93 94 96 96 96 97 100 100 101 102 102 102 103 103 103 104 105 105 104 102 99 97 94 92 91 89 87 83 77 71 64 55 44 34 27 20 12 5 357 351 347 343 340 339 338 338
26 31 37 33 27 19 15 22 30 35 33 27 32 47 63 70 80 90 98 97 94 89 86 85 80 69 49 31 26 40 86 101 101 94 84 68 55 55 73 87 90 89 90 91 92 93 95 95 98 100 100 100 100 101 102 103 103 103 103 101 100 99 97 96 94 91 87 81 73 66 59 50 41 33 26 18 10 3 356 350 345 342 340 339 339 339
33 44 50 43 34 24 20 27 34 38 33 29 37 54 74 79 82 89 101 110 113 111 105 99 90 75 44 22 16 24 57 94 103 101 95 79 52 38 52 84 90 89 85 88 89 90 88 89 92 96 99 100 101 101 101 101 101 102 101 101 101 101 101 99 97 94 88 79 70 62 54 46 39 32 24 16 8 1 354 348 344 341 339 339 340 340
39 50 58 53 45 35 28 35 40 41 35 32 36 46 63 73 75 82 97 111 117 120 121 120 116 109 87 29 9 9 17 71 98 102 97 84 54 25 29 74 92 94 90 88 89 91 91 90 91 95 99 101 101 101 100 101 101 101 101 101 102 102 102 101 98 94 86 76 66 58 51 44 36 29 22 14 5 358 351 346 342 339 339 340 340 341
41 50 59 60 53 44 34 40 41 41 41 44 47 50 54 57 62 69 83 96 105 110 112 110 118 124 127 120 47 352 352 48 94 101 94 84 60 28 23 60 86 94 92 88 86 88 91 92 93 97 100 102 102 101 101 101 101 102 102 102 102 102 101 98 95 90 80 70 62 54 47 41 34 27 19 11 3 355 348 343 340 339 340 341 342 342
40 47 59 66 63 57 48 44 43 43 49 57 65 69 67 59 56 54 54 57 65 74 83 81 82 89 104 106 82 5 352 41 91 101 94 87 71 42 27 60 82 89 90 88 88 89 89 90 95 99 102 102 103 103 103 103 103 103 104 103 102 100 97 94 89 82 73 65 57 51 44 38 31 24 17 9 0 352 345 341 340 340 342 343 343 343
50 45 57 80 85 76 59 47 45 54 71 83 86 85 81 72 59 49 42 40 41 43 53 64 64 62 65 71 52 21 4 35 74 90 92 89 79 55 30 63 83 89 87 84 80 77 78 80 90 97 101 102 103 104 104 104 104 104 103 102 99 95 91 86 81 74 66 59 53 47 41 35 29 22 14 6 357 349 343 341 341 342 344 344 345 345
66 45 20 78 97 96 82 67 68 81 97 100 95 89 85 76 61 50 43 52 55 57 59 62 59 55 60 72 60 28 2 28 67 91 93 85 74 57 32 62 82 89 87 80 70 64 67 68 75 88 99 103 104 105 105 105 104 103 102 98 94 89 83 78 72 66 60 54 49 44 38 33 27 20 12 3 354 347 342 341 342 344 346 346 346 347
94 68 4 49 78 95 105 102 99 101 108 109 109 107 103 86 72 63 58 66 70 71 72 72 67 62 62 63 51 27 8 17 40 83 97 88 76 58 32 63 84 89 86 80 69 60 61 63 71 86 99 103 104 104 104 103 102 101 98 93 87 81 76 71 65 60 55 50 46 41 36 31 25 18 10 0 352 346 343 344 345 347 348 348 348 349
107 106 87 77 84 95 103 104 102 99 99 98 98 98 93 86 83 81 75 77 80 84 84 84 78 70 62 59 48 34 23 15 13 36 86 94 92 79 40 75 87 89 86 81 74 67 62 58 63 80 97 101 101 101 99 98 97 95 92 86 80 74 68 64 59 55 52 48 44 39 35 30 24 16 7 358 351 346 344 346 347 349 350 350 350 350
106 109 104 100 102 104 106 105 100 93 86 85 84 83 82 86 88 90 89 90 93 95 96 90 79 65 53 48 43 34 24 14 9 20 74 96 102 102 79 95 97 95 89 81 75 70 66 56 49 54 78 92 95 94 93 91 90 87 83 77 72 67 62 58 55 52 49 46 42 38 34 29 22 14 5 357 351 348 347 348 350 351 351 351 350 350
104 110 113 116 118 119 117 115 112 109 104 101 100 99 98 99 99 98 98 99 100 100 97 86 75 62 43 37 32 24 13 10 10 20 73 98 102 98 77 92 101 102 97 83 72 69 70 61 47 39 44 69 80 83 83 82 80 76 73 69 64 60 57 54 52 49 47 45 41 37 33 27 20 12 3 356 352 350 349 350 351 352 351 351 350 348
102 111 118 121 123 123 123 123 123 123 122 120 119 118 116 113 109 105 102 106 110 110 104 93 83 68 45 37 27 14 359 3 7 17 55 99 106 100 74 80 95 102 101 88 77 72 74 65 52 38 30 41 56 65 69 69 67 65 63 60 58 55 52 50 49 48 46 44 41 37 31 25 18 10 2 356 354 352 352 352 353 352 352 350 348 344
104 111 116 119 121 123 125 126 127 128 128 129 131 132 131 125 118 114 115 127 131 127 118 115 109 96 63 47 32 12 355 2 4 7 20 86 100 102 94 95 101 103 101 92 80 73 73 65 51 35 26 14 20 34 51 53 54 54 54 53 52 50 48 47 46 45 45 42 39 35 30 23 16 8 2 358 356 355 354 354 353 353 351 349 346 340
101 109 114 117 119 122 125 128 130 131 132 134 137 139 138 131 126 129 139 146 141 131 126 130 129 124 106 86 56 17 8 11 3 356 2 66 88 97 106 108 109 107 104 93 77 66 64 57 40 21 10 7 8 17 30 37 42 44 45 46 46 45 44 43 43 42 42 40 37 33 28 21 14 7 2 0 359 357 356 355 355 353 351 348 341 328
89 99 108 112 116 119 122 125 129 132 135 138 141 143 141 133 132 138 148 147 138 129 127 130 130 127 121 116 100 58 32 19 351 339 7 66 81 91 110 113 113 112 107 98 80 55 44 39 28 11 356 6 10 11 9 19 27 33 36 38 39 40 40 39 38 38 38 37 35 31 25 19 13 7 4 2 1 360 358 357 357 356 352 344 333 321
72 82 93 100 105 109 113 117 125 132 136 138 139 137 121 111 120 131 140 141 135 130 128 126 124 122 122 116 103 80 54 351 283 300 49 82 93 106 121 123 129 131 122 115 104 82 39 29 25 17 359 2 3 1 354 0 7 16 24 30 33 36 36 34 33 33 34 33 31 29 24 18 12 8 5 4 3 3 1 1 2 2 355 340 328 320
62 66 70 76 82 89 94 99 110 121 128 126 117 97 72 82 105 124 136 139 136 131 129 128 129 131 135 130 130 136 156 185 194 181 106 102 113 132 146 143 149 155 124 121 125 128 127 65 24 20 7 357 352 349 348 355 4 12 16 24 28 30 29 27 27 27 28 27 26 25 22 17 12 8 6 5 6 5 5 6 7 6 357 340 328 321
66 68 67 65 67 72 78 81 84 87 89 80 66 55 58 77 105 127 140 142 138 133 130 132 135 140 148 145 146 148 151 165 173 170 139 121 122 138 155 150 153 153 22 35 97 125 135 142 117 33 8 355 344 337 338 357 14 21 21 24 22 19 18 20 21 22 21 20 20 19 18 15 11 8 4 5 6 7 9 9 10 10 4 340 324 317
73 73 72 69 67 67 69 71 70 69 66 59 53 51 56 71 91 112 128 134 136 136 137 138 142 147 153 145 130 121 131 155 167 168 155 134 128 139 157 154 152 144 79 33 41 71 103 124 128 115 30 354 337 330 332 357 18 29 31 29 20 9 8 14 16 16 13 11 11 12 13 10 7 4 0 1 4 7 11 12 12 10 4 341 315 312
79 80 80 77 72 67 63 64 66 69 69 69 67 65 64 66 70 72 67 69 90 118 136 144 149 153 157 149 134 120 140 162 166 165 158 142 134 142 155 159 158 150 127 92 68 65 71 95 116 124 107 26 344 333 336 356 13 27 38 39 28 12 2 7 8 5 358 358 360 3 7 5 3 359 353 354 358 4 10 12 12 9 4 354 334 317
86 86 86 86 84 78 72 68 67 67 67 67 68 70 71 69 65 58 50 46 47 52 69 111 140 152 158 157 155 156 167 168 168 166 160 150 141 142 152 162 162 154 136 125 112 103 97 110 124 128 121 97 16 339 337 350 3 18 36 46 41 25 9 6 1 354 346 350 354 357 360 359 357 352 345 348 353 360 6 10 9 7 3 1 358 348
96 96 94 95 95 93 88 81 74 68 63 59 58 61 67 68 64 59 54 53 52 52 49 45 50 76 131 149 156 159 162 162 164 165 163 157 147 143 147 159 159 151 137 131 126 123 122 125 126 123 116 109 92 350 333 346 0 17 32 37 33 23 11 6 0 353 347 352 355 356 356 356 351 345 338 345 350 355 1 5 7 5 0 1 3 4
109 109 105 103 103 102 97 86 78 72 69 60 57 58 63 67 65 63 60 60 61 63 61 55 50 48 51 76 111 133 144 150 156 159 160 157 148 140 139 147 151 149 138 137 138 137 131 129 125 117 101 105 113 124 357 2 11 20 27 25 19 11 3 360 0 2 2 357 354 351 353 352 347 340 334 343 347 350 355 359 1 1 357 357 2 8
124 121 114 106 102 100 98 90 84 80 78 74 71 70 70 71 69 67 64 63 64 65 66 61 57 54 53 65 78 98 119 135 143 147 148 148 140 130 129 132 137 139 128 136 142 144 141 140 138 134 116 102 102 107 105 76 54 40 24 10 2 359 356 357 2 9 11 358 349 346 349 348 342 336 333 339 343 347 350 350 353 355 354 353 358 6
140 134 127 113 104 98 97 96 94 91 88 88 88 87 84 79 74 70 66 64 64 66 68 68 65 61 57 67 80 94 108 121 129 133 134 134 130 127 128 130 133 133 124 122 127 134 141 143 145 144 140 127 110 94 77 77 82 78 37 7 359 356 353 0 9 14 14 4 355 349 346 340 338 337 337 340 348 354 353 343 344 348 350 343 351 2
150 140 127 111 99 94 98 103 105 105 103 101 98 95 91 85 77 70 65 65 66 67 68 70 69 64 58 59 66 78 89 104 114 118 119 119 120 123 127 131 133 133 130 116 106 104 108 112 116 122 127 128 128 125 112 106 125 134 102 51 20 358 342 353 2 8 10 11 4 352 339 333 336 341 345 349 353 353 344 330 329 335 344 344 350 359
152 132 111 95 87 86 92 101 108 111 112 108 101 96 93 92 90 85 78 73 71 71 75 76 74 68 60 54 52 54 60 72 84 92 93 98 103 109 117 124 129 132 131 119 102 88 89 97 101 104 109 118 122 124 126 135 147 147 122 111 113 285 307 336 354 5 5 6 0 351 341 338 341 345 347 349 344 330 310 298 307 322 342 344 355 5
138 118 104 98 96 98 104 109 111 111 108 103 101 100 104 110 113 111 106 96 88 83 86 91 89 82 73 63 54 50 50 57 65 73 79 86 94 103 112 119 126 130 130 119 107 95 92 100 108 115 124 125 125 124 125 129 123 104 80 118 130 51 333 337 344 358 12 3 356 353 356 347 341 338 337 336 326 312 299 295 315 341 358 354 355 0
113 106 107 111 115 119 121 118 115 112 106 100 100 104 111 118 121 120 116 111 109 108 104 102 100 96 89 79 67 55 49 50 56 63 71 78 87 98 111 120 129 135 134 125 115 106 97 98 102 111 123 126 128 130 134 134 119 58 23 91 119 110 82 347 331 338 356 354 355 359 5 349 325 311 311 312 309 305 303 317 349 9 14 5 360 359
107 108 111 116 119 120 119 120 119 118 115 112 111 112 112 117 119 118 114 115 115 115 109 104 99 95 92 89 85 76 64 56 54 58 67 80 88 95 104 114 122 128 129 126 126 122 112 105 103 103 106 111 118 125 131 133 130 113 1 348 125 138 148 183 305 330 340 335 337 345 351 333 315 307 312 315 314 314 320 336 357 9 11 7 5 5
114 117 120 124 125 126 127 128 126 122 116 117 118 119 117 114 115 117 119 120 120 120 122 120 111 102 95 97 99 97 86 75 65 62 64 78 86 91 92 97 100 101 98 106 118 126 127 126 124 118 103 101 107 115 125 128 126 120 113 123 130 152 197 226 320 337 333 324 324 326 333 331 337 347 356 354 350 347 350 7 16 17 10 7 8 11
122 126 131 133 134 136 137 135 130 123 117 118 119 119 116 110 111 116 123 125 126 129 135 128 119 116 120 125 123 115 106 93 82 72 65 68 69 72 77 81 83 84 82 80 84 95 113 126 131 129 118 104 95 94 101 116 124 128 135 140 136 110 15 345 329 302 291 304 310 317 326 343 10 35 38 22 12 11 15 24 25 21 10 8 10 14
136 138 141 140 139 137 136 134 131 128 126 125 124 121 117 112 114 118 122 126 129 131 132 116 110 115 128 134 134 129 122 115 107 98 91 84 81 78 78 79 80 81 84 83 79 77 79 94 112 121 125 118 109 97 84 97 114 130 146 153 143 114 85 24 310 281 256 277 300 314 330 358 31 53 50 14 12 22 31 34 30 23 15 14 16 18
144 145 146 144 142 139 139 140 140 138 137 134 129 125 125 130 133 132 128 133 134 132 127 118 113 117 124 129 134 133 130 126 122 117 113 107 101 96 92 91 89 87 86 86 85 82 78 73 75 84 105 115 120 123 124 117 116 125 156 167 138 110 96 61 323 300 284 285 296 314 342 31 70 98 118 47 48 50 47 41 34 27 20 19 20 23
141 146 148 147 147 148 151 151 149 146 144 141 136 133 135 142 144 143 139 143 140 135 131 131 130 130 130 133 134 132 128 125 123 122 121 119 117 113 110 107 104 100 96 92 89 86 80 71 64 60 65 82 105 122 132 134 137 143 190 200 122 108 103 73 346 329 337 343 345 354 25 66 92 113 131 92 81 74 62 50 40 30 22 21 24 30
134 144 150 151 154 156 158 157 155 153 150 147 144 142 142 143 142 142 141 141 137 132 131 137 138 139 140 141 140 137 133 130 128 128 129 129 128 127 126 124 121 117 112 106 101 94 86 73 61 54 53 59 74 100 128 138 143 143 120 66 74 100 109 86 354 336 349 357 359 8 38 63 72 74 66 90 88 81 72 57 44 33 22 20 27 35
137 145 151 155 158 160 159 159 158 157 154 152 149 147 145 143 142 140 140 138 132 126 124 132 139 143 147 146 145 143 141 138 137 137 139 138 137 136 136 137 136 133 128 124 121 116 109 98 78 56 45 47 53 68 125 144 144 133 111 86 33 41 96 97 319 321 339 348 353 6 35 54 53 47 35 100 92 83 75 62 48 35 22 22 30 39